Buffalo, MN

9:13 AM CST on December 17, 2017 (GMT -0600)
Buffalo

Weather History for KCFE - August, 2013

Change the Weather History Date:

Sunday, August 18, 2013

  Actual Average (KMIC) Record (KMIC)
Temperature  
Mean Temperature 68 °F -  
Max Temperature 80 °F 77 °F 97 °F (2003)
Min Temperature 57 °F 57 °F 48 °F (2002)
Cooling Degree Days 4    
Growing Degree Days 18 (Base 50)    
Moisture  
Dew Point 54 °F    
Average Humidity 59    
Maximum Humidity 82    
Minimum Humidity 36    
Precipitation  
Precipitation 0.00 in - - ()
Sea Level Pressure  
Sea Level Pressure 30.09 in    
Wind  
Wind Speed 6 mph (South)    
Max Wind Speed 14 mph    
Max Gust Speed 23 mph    
Visibility 10 miles    
Events      
Averages and records for this station are not official NWS values.
T = Trace of Precipitation, MM = Missing Value Source: NWS Daily Summary

Daily Weather History Graph

Daily Weather History Graph

Search for Another Location

Airport or City:

Trip Planner

Search our weather history database for the weather conditions in past years. The results will help you decide how hot, cold, wet, or windy it might be!

Date:

Astronomy

Aug. 18, 2013 Rise Set
Actual Time 6:20 AM CDT 8:16 PM CDT
Civil Twilight 5:48 AM CDT 8:48 PM CDT
Nautical Twilight 5:10 AM CDT 9:27 PM CDT
Astronomical Twilight 4:27 AM CDT 10:09 PM CDT
Moon 6:25 PM CDT (8/18) 3:26 AM CDT (8/18)
Length of Visible Light 14h 59m
Length of Day
13h 56m
Waxing Gibbous, 92% of the Moon is Illuminated
Aug 18
Waxing Gibbous
Aug 20
Full
Aug 28
Last Quarter
Sep 5
New
Sep 12
First Quarter

Hourly Weather History & Observations

Time (CDT) Temp. Dew Point Humidity Pressure Visibility Wind Dir Wind Speed Gust Speed Precip Events Conditions
12:14 AM 65.5 °F 54.0 °F 66% 30.12 in 10.0 mi SSE 4.6 mph - N/A   Clear
12:34 AM 65.5 °F 54.0 °F 66% 30.13 in 10.0 mi SSE 4.6 mph - N/A   Clear
12:54 AM 65.1 °F 53.8 °F 67% 30.13 in 10.0 mi SSE 4.6 mph - N/A   Clear
1:14 AM 64.6 °F 53.4 °F 67% 30.13 in 10.0 mi SSE 4.6 mph - N/A   Clear
1:34 AM 64.4 °F 53.2 °F 67% 30.13 in 10.0 mi South 4.6 mph - N/A   Clear
1:54 AM 63.7 °F 53.8 °F 70% 30.13 in 10.0 mi South 4.6 mph - N/A   Clear
2:14 AM 63.5 °F 54.0 °F 71% 30.13 in 10.0 mi South 4.6 mph - N/A   Clear
2:34 AM 62.8 °F 54.0 °F 73% 30.13 in 10.0 mi South 4.6 mph - N/A   Clear
2:54 AM 62.2 °F 54.3 °F 75% 30.13 in 10.0 mi SSW 4.6 mph - N/A   Clear
3:14 AM 62.1 °F 54.0 °F 75% 30.13 in 10.0 mi South 5.8 mph - N/A   Clear
3:34 AM 62.1 °F 54.0 °F 75% 30.13 in 10.0 mi South 3.5 mph - N/A   Clear
3:54 AM 61.2 °F 54.1 °F 78% 30.13 in 10.0 mi Calm Calm - N/A   Clear
4:14 AM 60.3 °F 53.6 °F 79% 30.13 in 10.0 mi Calm Calm - N/A   Clear
4:34 AM 60.1 °F 53.8 °F 80% 30.14 in 10.0 mi Calm Calm - N/A   Clear
4:54 AM 59.4 °F 52.9 °F 79% 30.13 in 10.0 mi Calm Calm - N/A   Clear
5:14 AM 57.7 °F 52.0 °F 81% 30.13 in 10.0 mi Calm Calm - N/A   Clear
5:34 AM 57.9 °F 52.5 °F 82% 30.13 in 10.0 mi SSE 3.5 mph - N/A   Clear
5:54 AM 58.6 °F 52.5 °F 80% 30.13 in 10.0 mi South 3.5 mph - N/A   Clear
6:14 AM 58.6 °F 52.3 °F 80% 30.13 in 10.0 mi South 3.5 mph - N/A   Clear
6:34 AM 58.6 °F 52.2 °F 79% 30.14 in 10.0 mi SSE 3.5 mph - N/A   Clear
6:54 AM 58.5 °F 52.2 °F 80% 30.14 in 10.0 mi South 3.5 mph - N/A   Clear
7:14 AM 59.2 °F 52.7 °F 79% 30.14 in 10.0 mi SSE 3.5 mph - N/A   Clear
7:34 AM 60.3 °F 53.2 °F 78% 30.14 in 10.0 mi SSE 4.6 mph - N/A   Clear
7:54 AM 61.0 °F 53.6 °F 77% 30.14 in 10.0 mi SSE 3.5 mph - N/A   Clear
8:14 AM 62.4 °F 54.0 °F 74% 30.14 in 10.0 mi South 5.8 mph - N/A   Clear
8:34 AM 64.0 °F 54.0 °F 70% 30.14 in 10.0 mi South 5.8 mph - N/A   Clear
8:55 AM 66.2 °F 54.5 °F 66% 30.14 in 10.0 mi South 4.6 mph - N/A   Clear
9:14 AM 67.5 °F 54.7 °F 64% 30.15 in 10.0 mi South 4.6 mph - N/A   Clear
9:34 AM 69.3 °F 55.2 °F 61% 30.14 in 10.0 mi South 4.6 mph - N/A   Clear
9:55 AM 71.2 °F 55.9 °F 58% 30.14 in 10.0 mi South 6.9 mph - N/A   Clear
10:14 AM 72.3 °F 55.6 °F 56% 30.14 in 10.0 mi South 6.9 mph - N/A   Clear
10:34 AM 72.7 °F 55.4 °F 55% 30.13 in 10.0 mi South 10.4 mph - N/A   Clear
10:55 AM 74.7 °F 55.0 °F 50% 30.13 in 10.0 mi South 11.5 mph - N/A   Clear
11:14 AM 74.8 °F 54.7 °F 49% 30.12 in 10.0 mi South 11.5 mph 16.1 mph N/A   Clear
11:34 AM 76.1 °F 55.2 °F 48% 30.12 in 10.0 mi South 8.1 mph - N/A   Clear
11:55 AM 77.4 °F 54.7 °F 45% 30.11 in 10.0 mi SSE 12.7 mph 16.1 mph N/A   Clear
12:14 PM 77.2 °F 53.2 °F 43% 30.11 in 10.0 mi SSW 10.4 mph 19.6 mph N/A   Clear
12:34 PM 77.5 °F 52.9 °F 42% 30.09 in 7.0 mi SSW 11.5 mph 20.7 mph N/A   Clear
12:54 PM 77.9 °F 52.3 °F 41% 30.09 in 10.0 mi South 12.7 mph 20.7 mph N/A   Clear
1:14 PM 78.4 °F 51.8 °F 39% 30.07 in 10.0 mi South 13.8 mph 23.0 mph N/A   Clear
1:34 PM 79.3 °F 53.6 °F 41% 30.06 in 10.0 mi South 11.5 mph 20.7 mph N/A   Clear
1:54 PM 79.0 °F 52.0 °F 39% 30.07 in 10.0 mi South 13.8 mph 19.6 mph N/A   Clear
2:14 PM 79.3 °F 51.8 °F 38% 30.08 in 10.0 mi South 11.5 mph 17.3 mph N/A   Clear
2:34 PM 80.4 °F 50.9 °F 36% 30.08 in 10.0 mi South 12.7 mph 19.6 mph N/A   Clear
2:54 PM 80.1 °F 51.4 °F 37% 30.08 in 10.0 mi South 11.5 mph 18.4 mph N/A   Clear
3:15 PM 79.5 °F 54.1 °F 41% 30.09 in 10.0 mi South 8.1 mph 16.1 mph N/A   Clear
3:34 PM 79.7 °F 52.5 °F 39% 30.09 in 10.0 mi South 9.2 mph - N/A   Clear
3:54 PM 79.0 °F 53.2 °F 41% 30.08 in 10.0 mi South 9.2 mph 18.4 mph N/A   Clear
4:14 PM 79.7 °F 52.2 °F 38% 30.07 in 10.0 mi SSW 11.5 mph 18.4 mph N/A   Clear
4:34 PM 79.7 °F 52.9 °F 39% 30.06 in 10.0 mi South 9.2 mph 18.4 mph N/A   Clear
4:54 PM 79.7 °F 54.0 °F 41% 30.06 in 10.0 mi South 10.4 mph 17.3 mph N/A   Clear
5:14 PM 79.5 °F 54.3 °F 42% 30.05 in 10.0 mi South 12.7 mph 18.4 mph N/A   Clear
5:34 PM 78.3 °F 54.0 °F 43% 30.05 in 10.0 mi South 9.2 mph - N/A   Clear
5:54 PM 77.9 °F 54.3 °F 44% 30.05 in 10.0 mi South 8.1 mph 16.1 mph N/A   Clear
6:14 PM 77.9 °F 54.5 °F 44% 30.04 in 10.0 mi South 10.4 mph 17.3 mph N/A   Clear
6:34 PM 77.7 °F 55.0 °F 45% 30.04 in 10.0 mi South 8.1 mph 16.1 mph N/A   Clear
6:54 PM 77.0 °F 55.8 °F 48% 30.03 in 10.0 mi South 6.9 mph - N/A   Clear
7:14 PM 76.3 °F 56.3 °F 50% 30.03 in 10.0 mi South 5.8 mph - N/A   Clear
7:34 PM 75.2 °F 56.8 °F 53% 30.02 in 10.0 mi SSE 4.6 mph - N/A   Clear
7:54 PM 73.4 °F 57.2 °F 57% 30.02 in 10.0 mi SSE 5.8 mph - N/A   Clear
8:14 PM 72.5 °F 58.1 °F 60% 30.01 in 10.0 mi SSE 4.6 mph - N/A   Clear
8:34 PM 71.6 °F 57.4 °F 61% 30.01 in 10.0 mi SSE 5.8 mph - N/A   Clear
8:54 PM 71.1 °F 57.2 °F 61% 30.01 in 10.0 mi SSE 3.5 mph - N/A   Clear
9:14 PM 70.7 °F 57.2 °F 62% 30.01 in 10.0 mi SSE 4.6 mph - N/A   Mostly Cloudy
9:34 PM 70.0 °F 57.2 °F 64% 30.01 in 10.0 mi SSE 5.8 mph - N/A   Mostly Cloudy
9:54 PM 69.6 °F 57.0 °F 64% 30.01 in 10.0 mi South 5.8 mph - N/A   Scattered Clouds
10:14 PM 69.4 °F 57.0 °F 65% 30.01 in 10.0 mi South 4.6 mph - N/A   Mostly Cloudy
10:34 PM 69.6 °F 56.8 °F 64% 30.02 in 10.0 mi SSE 4.6 mph - N/A   Mostly Cloudy
10:54 PM 69.3 °F 57.0 °F 65% 30.02 in 10.0 mi South 4.6 mph - N/A   Mostly Cloudy
11:14 PM 69.3 °F 57.2 °F 65% 30.03 in 10.0 mi South 3.5 mph - N/A   Overcast
11:33 PM 69.4 °F 57.2 °F 65% 30.03 in 10.0 mi South 3.5 mph - N/A   Overcast
11:54 PM 69.1 °F 57.4 °F 66% 30.03 in 10.0 mi South 3.5 mph - N/A   Overcast